FW3337 Weather Reports


Display with metric or nautical units.
time (UTC)temp
F
wind
direction
speed
MPH
gust
MPH
rain 1hr
in
rain 24hr
in
rain mn
in
humidity
%
barometer
mb
20260904103014 69 216 0.0 3.0 0.00 0.07 0.06 98 1010.4
20260904101513 69 216 0.0 2.0 0.00 0.07 0.06 97 1010.2
20260904100012 69 216 0.0 0.0 0.00 0.07 0.06 98 1010.0
20260904094521 69 216 0.0 1.0 0.00 0.07 0.06 97 1009.9
20260904093010 70 216 0.0 0.0 0.00 0.07 0.06 97 1009.7
20260904091509 70 216 0.0 1.0 0.00 0.07 0.06 97 1009.7
20260904090024 71 216 0.0 1.0 0.00 0.07 0.06 98 1009.7
20260904084505 71 216 0.0 0.0 0.00 0.07 0.06 97 1009.8
20260904083003 71 216 0.0 1.0 0.00 0.07 0.06 98 1009.8
20260904081505 71 216 0.0 0.0 0.00 0.07 0.06 98 1009.7
20260904080002 71 216 0.0 0.0 0.00 0.07 0.06 98 1009.5
20260904074501 72 216 0.0 1.0 0.00 0.07 0.06 98 1009.6
20260904073101 72 216 0.0 8.0 0.00 0.07 0.06 98 1009.9
20260904071620 71 246 0.0 0.0 0.00 0.07 0.06 98 1009.9
20260904070116 71 247 0.0 0.0 0.00 0.07 0.06 97 1009.8
20260904064656 72 247 0.0 1.0 0.00 0.08 0.06 98 1010.0
20260904063104 72 247 0.0 0.0 0.00 0.08 0.06 98 1010.2
20260904061553 72 247 0.0 0.0 0.00 0.08 0.06 98 1010.2
20260904060053 72 247 0.0 0.0 0.00 0.08 0.06 97 1010.0
20260904054552 72 247 0.0 0.0 0.00 0.15 0.06 97 1010.3
20260904053059 72 247 0.0 0.0 0.00 0.15 0.06 97 1010.8
20260904051549 72 247 0.0 1.0 0.06 0.15 0.06 97 1010.7
20260904050047 72 247 0.0 0.0 0.06 0.15 0.06 97 1010.7
20260904044546 72 247 0.0 0.0 0.06 0.33 0.06 97 1010.7
20260904043055 72 246 0.0 0.0 0.06 0.33 0.06 97 1010.9
20260904041541 72 247 0.0 3.0 0.00 0.27 0.00 97 1011.1
20260904040050 72 247 0.0 0.0 0.00 0.27 0.00 97 1011.3
20260904034536 72 247 0.0 0.0 0.00 0.27 0.27 97 1011.2
20260904033040 72 247 0.0 0.0 0.00 0.27 0.27 96 1011.1
20260904031547 73 247 0.0 0.0 0.00 0.27 0.27 97 1010.7
20260904030033 72 247 0.0 0.0 0.00 0.27 0.27 96 1011.2
20260904024534 73 247 0.0 0.0 0.00 0.27 0.27 96 1011.3
20260904023034 73 247 0.0 0.0 0.00 0.27 0.27 96 1011.4
20260904021532 73 247 0.0 0.0 0.00 0.27 0.27 96 1011.8
20260904020031 73 247 0.0 0.0 0.00 0.27 0.27 96 1011.9
20260904014531 73 247 0.0 0.0 0.00 0.27 0.27 96 1012.1
20260904013030 73 247 0.0 0.0 0.00 0.27 0.27 95 1012.3
20260904011529 73 247 0.0 0.0 0.00 0.27 0.27 95 1012.0
20260904010029 74 247 0.0 0.0 0.00 0.27 0.27 95 1012.1
20260904004531 74 247 0.0 0.0 0.00 0.27 0.27 94 1011.7
20260904003030 75 247 0.0 0.0 0.00 0.27 0.27 94 1011.9
20260904001526 75 247 0.0 0.0 0.00 0.27 0.27 93 1011.8
20260904000027 76 247 0.0 0.0 0.00 0.27 0.27 92 1011.6
20260903234526 77 247 0.0 0.0 0.00 0.27 0.27 91 1011.4
20260903233025 77 247 0.0 0.0 0.00 0.27 0.27 90 1011.3
20260903231526 78 247 0.0 0.0 0.00 0.27 0.27 88 1011.0
20260903230124 79 247 0.0 0.0 0.00 0.27 0.27 87 1011.3
20260903224522 80 247 0.0 0.0 0.00 0.27 0.27 86 1011.3
20260903223026 81 247 0.0 0.0 0.00 0.27 0.27 84 1011.5
20260903221521 82 247 0.0 0.0 0.00 0.27 0.27 83 1011.5
20260903220026 82 247 0.0 0.0 0.00 0.27 0.27 80 1011.5
20260903214528 83 247 0.0 0.0 0.00 0.27 0.27 78 1011.5
20260903213027 83 247 0.0 0.0 0.00 0.27 0.27 79 1011.3
20260903211529 83 247 0.0 2.0 0.00 0.27 0.27 75 1011.2
20260903210020 83 247 0.0 1.0 0.00 0.27 0.27 74 1011.4
20260903204518 83 247 0.0 2.0 0.00 0.27 0.27 74 1011.4
20260903203016 83 247 0.0 1.0 0.00 0.27 0.27 75 1011.5
20260903201529 83 246 0.0 1.0 0.00 0.27 0.27 76 1011.4
20260903200015 83 247 0.0 0.0 0.00 0.27 0.27 76 1011.7
20260903194518 83 246 0.0 0.0 0.00 0.27 0.27 76 1011.7
20260903193012 83 247 0.0 1.0 0.00 0.27 0.27 76 1011.8
20260903191510 83 246 0.0 3.0 0.00 0.27 0.27 75 1011.8
20260903190009 83 239 0.0 4.0 0.00 0.43 0.27 75 1012.0
20260903184508 84 210 1.0 5.0 0.00 0.43 0.27 71 1012.0
20260903183006 85 185 0.0 3.0 0.00 0.43 0.27 72 1012.2
20260903181503 84 183 0.0 3.0 0.00 0.43 0.27 73 1012.2
20260903180001 83 201 0.0 2.0 0.00 0.43 0.27 73 1012.3
20260903174559 83 201 1.0 4.0 0.00 0.43 0.27 73 1012.4
20260903173056 82 303 0.0 5.0 0.00 0.43 0.27 75 1012.7
20260903171552 81 222 1.0 7.0 0.01 0.43 0.27 76 1012.8
20260903170100 81 212 1.0 4.0 0.01 0.43 0.27 77 1013.0
20260903164548 80 213 2.0 10.0 0.01 0.43 0.27 78 1013.1
20260903163047 79 241 1.0 7.0 0.01 0.43 0.27 79 1013.2
20260903161544 78 206 1.0 4.0 0.00 0.42 0.26 80 1013.3
20260903160040 77 210 0.0 5.0 0.00 0.42 0.26 82 1013.7
20260903154544 76 210 0.0 7.0 0.00 0.42 0.26 85 1013.9
20260903153032 75 256 0.0 5.0 0.00 0.42 0.26 88 1014.3
20260903151528 74 237 0.0 4.0 0.00 0.42 0.26 92 1014.0
20260903150024 72 209 1.0 5.0 0.00 0.42 0.26 94 1014.0
20260903144523 72 206 0.0 2.0 0.00 0.42 0.26 96 1014.2
20260903143017 71 141 0.0 2.0 0.00 0.42 0.26 98 1014.2
20260903141518 70 141 0.0 1.0 0.00 0.42 0.26 98 1014.3
20260903140015 70 92 0.0 2.0 0.00 0.42 0.26 98 1014.2
20260903134510 69 88 0.0 2.0 0.00 0.42 0.26 99 1014.3
20260903133009 69 88 0.0 0.0 0.00 0.42 0.26 99 1014.6
20260903131508 69 88 0.0 1.0 0.00 0.42 0.26 99 1014.1
20260903130008 69 88 0.0 1.0 0.00 0.42 0.26 99 1014.2
20260903124506 69 88 0.0 0.0 0.00 0.42 0.26 99 1014.8
20260903123005 68 88 0.0 1.0 0.00 0.42 0.26 99 1014.8
20260903121503 68 88 0.0 0.0 0.00 0.42 0.26 99 1014.8
20260903120001 67 88 0.0 0.0 0.00 0.42 0.26 99 1014.6
20260903114601 67 88 0.0 0.0 0.00 0.42 0.26 99 1014.7
20260903113059 67 88 0.0 1.0 0.00 0.42 0.26 99 1014.7
20260903111606 66 88 0.0 0.0 0.00 0.42 0.26 99 1014.9
20260903110057 66 88 0.0 0.0 0.00 0.42 0.26 99 1014.9
20260903104620 66 88 0.0 0.0 0.00 0.43 0.26 98 1014.9